Track STARLINK-2066 now! 10-day predictions STARLINK-2066 is classified as:
1 47673U 21012BF 22181.49847157 .00001829 00000-0 14168-3 0 9995 2 47673 53.0555 343.8980 0001524 66.5699 293.5450 15.06397005 77053